Location: Albert Place
(40.7505°N, 111.9230°W)
Time: 16:57:31
(UTC+00:00)

Cosmos 1570 Rocket - Pass Details

Date: 21 March 2026
Orbit: 759 x 783 km, 74.1° (Epoch: 18 April)

Event Time Altitude Azimuth Distance (km) Brightness Sun altitude
Rises 04:16:51 0° 352° (N) 3,237 7.7 -29.3°
Reaches altitude 10° 04:19:43 10° 7° (N) 2,310 6.7 -29.8°
Enters shadow 04:21:14 16° 21° (NNE) 1,915 6.1 -30.0°
